Weather History for Midland Airpark, TX

Change the Weather History Date:

Wednesday, October 2, 2013

  Actual Average (KMAF) Record (KMAF)
Temperature  
Mean Temperature 80 °F 69 °F  
Max Temperature 95 °F 82 °F 101 °F (2000)
Min Temperature 66 °F 57 °F 42 °F (1965)
Degree Days  
Heating Degree Days 0 1  
Month to date heating degree days 2  
Since 1 July heating degree days 13  
Cooling Degree Days 15 6  
Month to date cooling degree days 12  
Year to date cooling degree days 2191  
Growing Degree Days 30 (Base 50)    
Moisture  
Dew Point 48 °F    
Average Humidity 42    
Maximum Humidity 80    
Minimum Humidity 7    
Precipitation  
Precipitation 0.00 in 0.06 in 2.84 in (1986)
Month to date precipitation 0.13  
Year to date precipitation 11.71  
Snow  
Snow 0.00 in - - ()
Month to date snowfall  
Since 1 July snowfall  
Since 1 September snowfall  
Snow Depth -    
Sea Level Pressure  
Sea Level Pressure 29.91 in    
Wind  
Wind Speed 8 mph (South)    
Max Wind Speed 15 mph    
Max Gust Speed 22 mph    
Visibility 10 miles    
Events      
T = Trace of Precipitation, MM = Missing Value Source: NWS Daily Summary

Daily Weather History Graph

Daily Weather History Graph

Search for Another Location

Airport:

Trip Planner

Search our weather history database for the weather conditions in past years. The results will help you decide how hot, cold, wet, or windy it might be!

Date:

Astronomy

Oct. 02, 2013 Rise Set
Actual Time 7:43 AM CDT 7:31 PM CDT
Civil Twilight 7:18 AM CDT 7:55 PM CDT
Nautical Twilight 6:50 AM CDT 8:24 PM CDT
Astronomical Twilight 6:21 AM CDT 8:52 PM CDT
Moon 5:24 AM CDT (10/2) 6:03 PM CDT (10/2)
Length of Visible Light 12h 37m
Length of Day
11h 48m
Waning Crescent, 6% of the Moon is Illuminated
Oct 2
Waning Crescent
Oct 4
New
Oct 11
First Quarter
Oct 18
Full
Oct 26
Last Quarter

Hourly Weather History & Observations

Time (CDT) Temp. Heat Index Dew Point Humidity Pressure Visibility Wind Dir Wind Speed Gust Speed Precip Events Conditions
12:15 AM 75.4 °F - 53.6 °F 47% 29.93 in 10.0 mi South 8.1 mph - N/A   Clear
12:35 AM 75.2 °F - 54.5 °F 48% 29.93 in 10.0 mi South 8.1 mph - N/A   Clear
12:55 AM 73.9 °F - 54.5 °F 51% 29.93 in 10.0 mi South 6.9 mph - N/A   Clear
1:15 AM 73.2 °F - 54.9 °F 52% 29.93 in 10.0 mi SSE 5.8 mph - N/A   Clear
1:35 AM 72.1 °F - 55.4 °F 56% 29.93 in 10.0 mi SSE 6.9 mph - N/A   Clear
1:55 AM 72.3 °F - 55.9 °F 56% 29.93 in 10.0 mi SSE 8.1 mph - N/A   Clear
2:15 AM 71.4 °F - 55.4 °F 57% 29.93 in 10.0 mi South 6.9 mph - N/A   Clear
2:35 AM 70.7 °F - 56.3 °F 60% 29.93 in 10.0 mi South 5.8 mph - N/A   Clear
2:55 AM 70.7 °F - 56.8 °F 61% 29.93 in 10.0 mi South 6.9 mph - N/A   Clear
3:15 AM 71.2 °F - 57.9 °F 63% 29.93 in 10.0 mi South 8.1 mph - N/A   Clear
3:35 AM 71.6 °F - 58.6 °F 64% 29.92 in 10.0 mi South 9.2 mph - N/A   Clear
3:55 AM 72.0 °F - 59.4 °F 64% 29.91 in 10.0 mi South 9.2 mph - N/A   Clear
4:15 AM 71.6 °F - 59.5 °F 66% 29.91 in 10.0 mi South 9.2 mph - N/A   Clear
4:35 AM 70.3 °F - 59.4 °F 68% 29.91 in 10.0 mi SSE 6.9 mph - N/A   Clear
4:55 AM 67.8 °F - 57.4 °F 69% 29.92 in 10.0 mi SE 5.8 mph - N/A   Clear
5:15 AM 68.2 °F - 58.6 °F 71% 29.91 in 10.0 mi SSE 6.9 mph - N/A   Clear
5:35 AM 67.3 °F - 58.6 °F 74% 29.91 in 10.0 mi SSE 5.8 mph - N/A   Clear
5:55 AM 67.3 °F - 59.2 °F 75% 29.91 in 10.0 mi South 5.8 mph - N/A   Clear
6:15 AM 66.6 °F - 59.2 °F 77% 29.92 in 10.0 mi South 5.8 mph - N/A   Clear
6:35 AM 66.2 °F - 59.4 °F 79% 29.92 in 10.0 mi South 4.6 mph - N/A   Clear
6:55 AM 67.1 °F - 59.9 °F 78% 29.93 in 10.0 mi South 5.8 mph - N/A   Clear
7:15 AM 66.7 °F - 60.1 °F 79% 29.93 in 10.0 mi South 5.8 mph - N/A   Clear
7:35 AM 67.1 °F - 60.3 °F 79% 29.93 in 10.0 mi South 9.2 mph - N/A   Clear
7:55 AM 67.3 °F - 60.8 °F 80% 29.93 in 10.0 mi South 9.2 mph - N/A   Clear
8:15 AM 68.2 °F - 61.2 °F 78% 29.93 in 10.0 mi South 11.5 mph - N/A   Clear
8:35 AM 68.9 °F - 61.7 °F 78% 29.94 in 10.0 mi SSW 6.9 mph - N/A   Clear
8:55 AM 70.3 °F - 62.2 °F 75% 29.95 in 10.0 mi South 8.1 mph - N/A   Clear
9:15 AM 72.3 °F - 62.8 °F 72% 29.95 in 10.0 mi SSW 9.2 mph - N/A   Clear
9:35 AM 74.3 °F - 63.0 °F 68% 29.96 in 10.0 mi South 8.1 mph - N/A   Clear
9:55 AM 76.1 °F - 62.2 °F 62% 29.96 in 10.0 mi South 12.7 mph - N/A   Clear
10:15 AM 77.7 °F - 61.0 °F 56% 29.96 in 10.0 mi SSW 11.5 mph 18.4 mph N/A   Clear
10:35 AM 79.7 °F - 59.0 °F 49% 29.96 in 10.0 mi SSW 9.2 mph - N/A   Clear
10:55 AM 81.3 °F 81.2 °F 57.0 °F 43% 29.96 in 10.0 mi SSW 10.4 mph - N/A   Clear
11:15 AM 83.5 °F - 51.3 °F 33% 29.96 in 10.0 mi SSW 10.4 mph - N/A   Clear
11:35 AM 84.4 °F - 48.4 °F 29% 29.96 in 10.0 mi SW 10.4 mph - N/A   Clear
11:55 AM 86.0 °F - 44.6 °F 23% 29.96 in 10.0 mi SW 10.4 mph - N/A   Clear
12:15 PM 87.1 °F - 45.0 °F 23% 29.95 in 10.0 mi SW 9.2 mph - N/A   Clear
12:35 PM 87.6 °F - 44.6 °F 22% 29.94 in 10.0 mi SSW 9.2 mph - N/A   Clear
12:55 PM 89.2 °F - 42.6 °F 20% 29.94 in 10.0 mi WSW 8.1 mph - N/A   Clear
1:15 PM 90.3 °F - 42.1 °F 19% 29.93 in 10.0 mi South 6.9 mph - N/A   Clear
1:35 PM 91.9 °F - 36.7 °F 14% 29.92 in 10.0 mi SSW 6.9 mph 19.6 mph N/A   Clear
1:55 PM 92.3 °F - 33.6 °F 13% 29.91 in 10.0 mi SW 8.1 mph 21.9 mph N/A   Clear
2:15 PM 93.4 °F - 32.5 °F 12% 29.90 in 10.0 mi WSW 8.1 mph - N/A   Clear
2:35 PM 93.6 °F - 31.8 °F 11% 29.89 in 10.0 mi South 6.9 mph 18.4 mph N/A   Clear
2:55 PM 93.6 °F - 29.8 °F 10% 29.89 in 10.0 mi WSW 10.4 mph - N/A   Clear
3:15 PM 93.9 °F - 28.9 °F 10% 29.88 in 10.0 mi WSW 10.4 mph - N/A   Clear
3:35 PM 94.3 °F - 28.6 °F 10% 29.87 in 10.0 mi SW 9.2 mph - N/A   Clear
3:55 PM 94.8 °F - 27.9 °F 9% 29.87 in 10.0 mi WSW 8.1 mph - N/A   Clear
4:15 PM 94.5 °F - 24.8 °F 8% 29.86 in 10.0 mi West 4.6 mph - N/A   Clear
4:35 PM 94.1 °F - 24.4 °F 8% 29.86 in 10.0 mi West 10.4 mph - N/A   Clear
4:55 PM 94.3 °F - 23.7 °F 8% 29.85 in 10.0 mi South 8.1 mph - N/A   Clear
5:15 PM 94.3 °F - 24.1 °F 8% 29.85 in 10.0 mi SW 8.1 mph - N/A   Clear
5:35 PM 94.1 °F - 21.9 °F 7% 29.85 in 10.0 mi SW 4.6 mph - N/A   Clear
5:55 PM 94.1 °F - 23.7 °F 8% 29.85 in 10.0 mi South 5.8 mph - N/A   Clear
6:15 PM 93.6 °F - 23.0 °F 8% 29.85 in 10.0 mi South 8.1 mph - N/A   Clear
6:35 PM 93.2 °F - 23.5 °F 8% 29.86 in 10.0 mi SSW 4.6 mph - N/A   Clear
6:55 PM 92.3 °F - 22.5 °F 8% 29.86 in 10.0 mi SSW 5.8 mph - N/A   Clear
7:15 PM 90.9 °F - 23.5 °F 9% 29.85 in 10.0 mi SSW 4.6 mph - N/A   Clear
7:35 PM 88.7 °F - 24.6 °F 10% 29.86 in 10.0 mi South 4.6 mph - N/A   Clear
7:55 PM 86.2 °F - 25.5 °F 11% 29.87 in 10.0 mi South 3.5 mph - N/A   Clear
8:15 PM 84.4 °F - 26.6 °F 12% 29.87 in 10.0 mi South 3.5 mph - N/A   Clear
8:35 PM 83.1 °F - 45.1 °F 26% 29.88 in 10.0 mi South 11.5 mph 20.7 mph N/A   Clear
8:55 PM 82.8 °F - 52.9 °F 36% 29.89 in 10.0 mi South 15.0 mph - N/A   Clear
9:15 PM 82.0 °F 81.4 °F 54.9 °F 39% 29.90 in 10.0 mi South 13.8 mph 19.6 mph N/A   Clear
9:35 PM 81.1 °F 81.0 °F 55.9 °F 42% 29.91 in 10.0 mi South 15.0 mph 19.6 mph N/A   Clear
9:55 PM 80.1 °F 80.6 °F 57.9 °F 47% 29.91 in 10.0 mi South 12.7 mph - N/A   Clear
10:15 PM 79.3 °F - 59.5 °F 51% 29.92 in 10.0 mi SSE 11.5 mph - N/A   Clear
10:35 PM 78.8 °F - 60.4 °F 53% 29.93 in 10.0 mi South 11.5 mph - N/A   Clear
10:55 PM 78.3 °F - 60.8 °F 55% 29.93 in 10.0 mi South 12.7 mph - N/A   Clear
11:15 PM 77.4 °F - 61.0 °F 57% 29.93 in 10.0 mi SSE 9.2 mph - N/A   Clear
11:35 PM 76.3 °F - 61.2 °F 59% 29.93 in 10.0 mi SSE 12.7 mph - N/A   Clear
11:55 PM 75.4 °F - 61.2 °F 61% 29.93 in 10.0 mi South 9.2 mph - N/A   Clear